Weather History for Christchurch, New Zealand

Change the Weather History Date:

Sunday, March 9, 2014

  Actual Average Record
Temperature  
Mean Temperature 56 °F -  
Max Temperature 60 °F 64 °F - ()
Min Temperature 51 °F 46 °F - ()
Degree Days  
Heating Degree Days 10    
Growing Degree Days 6 (Base 50)    
Moisture  
Dew Point 52 °F    
Average Humidity 84    
Maximum Humidity 100    
Minimum Humidity 68    
Precipitation  
Precipitation 0.00 in - - ()
Sea Level Pressure  
Sea Level Pressure 30.21 in    
Wind  
Wind Speed 4 mph ()    
Max Wind Speed 10 mph    
Max Gust Speed -    
Visibility 6.2 miles    
Events      
T = Trace of Precipitation, MM = Missing Value Source: Averaged Metar Reports

Daily Weather History Graph

Daily Weather History Graph

Search for Another Location

Airport:

Trip Planner

Search our weather history database for the weather conditions in past years. The results will help you decide how hot, cold, wet, or windy it might be!

Date:

Astronomy

Mar. 09, 2014 Rise Set
Actual Time 7:18 AM NZDT 8:02 PM NZDT
Civil Twilight 6:49 AM NZDT 8:30 PM NZDT
Nautical Twilight 6:14 AM NZDT 9:05 PM NZDT
Astronomical Twilight 5:39 AM NZDT 9:40 PM NZDT
Moon 3:16 PM NZDT (3/9) 12:12 AM NZDT (3/9)
Length of Visible Light 13h 41m
Length of Day
12h 44m
First Quarter, 54% of the Moon is Illuminated
Mar 9
First Quarter
Mar 17
Full
Mar 24
Last Quarter
Mar 31
New
Apr 7
First Quarter

Hourly Weather History & Observations

Time (NZDT) Temp. Dew Point Humidity Pressure Visibility Wind Dir Wind Speed Gust Speed Precip Events Conditions
12:00 AM 55.4 °F 53.6 °F 94% 30.15 in 6.2 mi East 6.9 mph - N/A   Scattered Clouds
12:30 AM 53.6 °F 51.8 °F 94% 30.12 in 6.2 mi NE 4.6 mph - N/A   Scattered Clouds
1:00 AM 55.4 °F 53.6 °F 94% 30.12 in 6.2 mi NNE 3.5 mph - N/A   Overcast
1:30 AM 55.4 °F 53.6 °F 94% 30.15 in 6.2 mi Calm Calm - N/A   Overcast
2:00 AM 55.4 °F 53.6 °F 94% 30.12 in 6.2 mi NW 2.3 mph - N/A   Overcast
2:30 AM 55.4 °F 53.6 °F 94% 30.15 in 6.2 mi WNW 3.5 mph - N/A   Mostly Cloudy
3:00 AM 53.6 °F 51.8 °F 94% 30.15 in 6.2 mi NW 5.8 mph - N/A   Scattered Clouds
3:30 AM 51.8 °F 51.8 °F 100% 30.15 in 6.2 mi WSW 2.3 mph - N/A   Mostly Cloudy
4:00 AM 53.6 °F 51.8 °F 94% 30.15 in 6.2 mi West 1.2 mph - N/A   Mostly Cloudy
4:30 AM 53.6 °F 51.8 °F 94% 30.15 in 6.2 mi Calm Calm - N/A   Overcast
5:00 AM 55.4 °F 53.6 °F 94% 30.15 in 6.2 mi South 2.3 mph - N/A   Overcast
5:30 AM 55.4 °F 53.6 °F 94% 30.15 in 6.2 mi SSE 2.3 mph - N/A   Overcast
6:00 AM 55.4 °F 53.6 °F 94% 30.15 in 6.2 mi SSW 5.8 mph - N/A   Mostly Cloudy
6:30 AM 55.4 °F 53.6 °F 94% 30.15 in 6.2 mi SSW 4.6 mph - N/A   Overcast
7:00 AM 55.4 °F 53.6 °F 94% 30.15 in 6.2 mi SSW 4.6 mph - N/A   Overcast
7:30 AM 55.4 °F 53.6 °F 94% 30.18 in 6.2 mi SW 3.5 mph - N/A   Overcast
8:00 AM 55.4 °F 53.6 °F 94% 30.18 in 6.2 mi SW 1.2 mph - N/A   Overcast
8:30 AM 55.4 °F 53.6 °F 94% 30.18 in 6.2 mi South 2.3 mph - N/A   Overcast
9:00 AM 55.4 °F 53.6 °F 94% 30.18 in 6.2 mi SSW 2.3 mph - N/A   Overcast
9:30 AM 57.2 °F 53.6 °F 88% 30.21 in 6.2 mi SSW 2.3 mph - N/A   Overcast
10:00 AM 57.2 °F 51.8 °F 82% 30.21 in 6.2 mi South 5.8 mph - N/A   Overcast
10:30 AM 57.2 °F 53.6 °F 88% 30.21 in 6.2 mi SE 4.6 mph - N/A   Overcast
11:00 AM 57.2 °F 53.6 °F 88% 30.21 in 6.2 mi SE 2.3 mph - N/A   Overcast
11:30 AM 59.0 °F 51.8 °F 77% 30.21 in 6.2 mi South 4.6 mph - N/A   Mostly Cloudy
12:00 PM 59.0 °F 51.8 °F 77% 30.24 in 6.2 mi South 3.5 mph - N/A   Overcast
12:30 PM 59.0 °F 51.8 °F 77% 30.24 in 6.2 mi South 4.6 mph - N/A   Overcast
1:00 PM 59.0 °F 51.8 °F 77% 30.24 in 6.2 mi South 5.8 mph - N/A   Overcast
1:30 PM 60.8 °F 51.8 °F 72% 30.24 in 6.2 mi South 3.5 mph - N/A   Overcast
2:00 PM 60.8 °F 51.8 °F 72% 30.24 in 6.2 mi SSW 4.6 mph - N/A   Overcast
2:30 PM 59.0 °F 51.8 °F 77% 30.24 in 6.2 mi SSW 8.1 mph - N/A   Overcast
3:00 PM 59.0 °F 51.8 °F 77% 30.24 in 6.2 mi SSW 9.2 mph - N/A   Overcast
3:30 PM 60.8 °F 50.0 °F 68% 30.24 in 6.2 mi SSW 10.4 mph - N/A   Overcast
4:00 PM 60.8 °F 50.0 °F 68% 30.24 in 6.2 mi South 10.4 mph - N/A   Overcast
4:30 PM 60.8 °F 50.0 °F 68% 30.24 in 6.2 mi South 10.4 mph - N/A   Overcast
5:00 PM 60.8 °F 50.0 °F 68% 30.24 in 6.2 mi South 10.4 mph - N/A   Overcast
5:30 PM 60.8 °F 50.0 °F 68% 30.24 in 6.2 mi South 9.2 mph - N/A   Overcast
6:00 PM 60.8 °F 50.0 °F 68% 30.24 in 6.2 mi South 8.1 mph - N/A   Overcast
6:30 PM 59.0 °F 50.0 °F 72% 30.24 in 6.2 mi SSW 9.2 mph - N/A   Overcast
7:00 PM 59.0 °F 50.0 °F 72% 30.24 in 6.2 mi SSW 8.1 mph - N/A   Overcast
7:30 PM 59.0 °F 50.0 °F 72% 30.27 in 6.2 mi South 8.1 mph - N/A   Overcast
8:00 PM 57.2 °F 50.0 °F 77% 30.27 in 6.2 mi SSW 5.8 mph - N/A   Overcast
8:30 PM 55.4 °F 50.0 °F 82% 30.27 in 6.2 mi SSW 8.1 mph - N/A   Overcast
9:00 PM 55.4 °F 50.0 °F 82% 30.27 in 6.2 mi SW 6.9 mph - N/A   Overcast
9:30 PM 55.4 °F 50.0 °F 82% 30.30 in 6.2 mi WSW 3.5 mph - N/A   Overcast
10:00 PM 55.4 °F 50.0 °F 82% 30.30 in 6.2 mi WSW 2.3 mph - N/A   Mostly Cloudy
10:30 PM 55.4 °F 50.0 °F 82% 30.30 in 6.2 mi WSW 2.3 mph - N/A   Overcast
11:00 PM 55.4 °F 50.0 °F 82% 30.30 in 6.2 mi WSW 2.3 mph - N/A   Overcast
11:30 PM 55.4 °F 50.0 °F 82% 30.33 in 6.2 mi WSW 2.3 mph - N/A   Overcast